Wind_Speed
16 16 16 16 16 16 15 15 15 14 14 13 13 13 13 13 14 15 15 15 15 15 15 15 15 14 14 16 16 16 15 14 15 19 20 18 20 25 26 26 25 25 25 23 22 21 17 16 14 9 8 6 2 5 10 4 3 8 9 9 8 5 3 2 3 3 6 8 8 8 8 9 10 8 10 11 10 13 14 11 9 9 13 14 13 13 17 20
17 17 17 17 17 16 16 16 15 15 14 14 13 13 13 12 12 13 14 15 15 15 15 15 15 15 14 15 16 15 14 14 14 16 16 17 20 23 23 24 24 24 25 23 22 20 17 17 16 12 9 6 6 9 11 9 8 11 13 12 8 4 1 1 2 3 4 6 8 8 7 8 9 8 10 13 12 12 14 12 11 14 16 14 13 13 15 19
18 18 17 17 17 17 17 16 16 15 15 14 14 14 13 12 12 12 13 14 14 15 14 14 14 14 14 14 14 14 12 11 12 13 14 17 19 21 21 21 22 23 24 22 21 18 13 14 16 13 8 8 12 12 10 11 11 12 13 9 5 5 4 2 1 2 4 6 8 7 7 8 8 8 10 13 11 11 14 12 13 17 16 13 14 14 15 18
19 18 18 18 18 18 18 17 17 16 15 15 15 14 14 13 13 12 12 12 13 14 13 13 13 13 14 13 13 13 9 7 9 13 12 14 16 18 20 20 21 22 23 22 21 17 12 12 13 12 11 13 14 13 12 11 10 9 10 6 4 6 8 3 2 2 4 6 7 7 7 7 7 7 9 12 9 10 13 11 15 17 13 12 14 15 15 17
19 19 19 19 19 19 19 18 18 17 16 16 15 15 15 14 13 13 13 12 13 12 12 12 11 12 12 13 13 10 6 3 5 12 10 10 14 16 19 19 20 21 22 23 21 17 14 15 15 15 17 16 14 14 15 13 10 8 10 8 4 5 3 3 3 4 4 6 7 7 7 7 8 7 7 11 8 8 13 13 16 16 11 11 14 15 16 16
20 20 20 20 19 19 19 19 18 18 18 17 16 16 16 15 14 14 14 13 13 12 12 12 11 10 11 12 12 10 7 4 4 11 12 9 12 15 18 19 20 21 21 23 23 18 17 17 17 19 19 17 16 16 16 15 13 10 11 12 6 5 1 3 3 5 4 6 8 7 8 8 8 8 8 10 6 7 14 14 16 17 12 11 13 14 16 17
20 20 20 20 20 20 20 20 19 19 18 18 17 17 17 16 16 15 15 14 13 13 12 12 11 10 10 12 12 12 12 10 9 15 17 12 11 14 17 19 19 21 22 24 25 21 19 19 19 20 19 18 16 16 17 18 19 13 10 11 11 10 5 1 4 6 5 6 8 7 8 9 9 9 9 9 5 8 16 15 17 17 12 10 13 14 16 17
19 20 20 21 21 21 21 21 20 20 19 19 18 18 17 17 17 16 16 16 15 14 13 12 12 10 10 11 12 13 10 9 14 19 19 15 11 13 16 18 20 22 23 23 25 23 20 20 20 20 19 19 17 15 15 16 18 17 12 10 11 11 8 6 6 7 6 6 8 8 8 9 9 9 10 10 8 11 16 17 17 15 12 11 13 15 16 16
19 19 19 20 21 21 22 22 21 21 20 20 19 18 17 17 17 17 17 17 16 15 14 13 12 11 11 11 12 11 4 6 18 21 20 17 12 13 15 18 20 21 23 23 24 24 21 20 21 21 20 19 17 17 15 14 16 16 14 12 12 11 10 10 10 9 8 7 9 9 9 10 9 8 10 11 12 12 14 18 16 13 14 14 12 14 16 17
19 19 19 19 20 21 22 22 22 22 22 21 20 19 18 18 17 18 18 17 17 16 16 15 14 13 13 12 13 11 4 7 17 21 20 17 12 12 14 17 20 21 23 23 24 25 24 21 19 19 20 19 18 18 18 17 16 15 16 16 13 13 13 12 12 13 11 10 11 10 10 11 10 10 11 13 14 13 16 20 16 13 14 15 14 15 16 18
19 19 19 19 19 20 21 21 22 22 22 22 21 21 19 19 18 18 18 18 18 17 17 16 16 16 15 15 15 12 9 7 9 16 19 15 10 12 14 17 20 21 23 23 24 25 25 23 18 17 19 20 20 19 19 20 18 18 18 17 16 15 14 14 15 15 13 12 12 11 11 11 11 11 11 14 14 15 18 19 17 15 15 16 16 16 17 18
20 19 19 19 19 19 20 20 21 22 22 22 22 22 21 20 19 19 19 19 19 19 19 18 18 18 17 20 15 9 11 10 9 14 19 19 12 10 14 16 18 21 22 23 24 23 24 24 20 19 18 17 19 19 19 19 20 22 19 16 17 16 15 15 15 15 13 13 14 13 12 13 14 11 12 16 15 16 19 18 18 18 18 17 15 16 17 18
20 20 20 20 19 19 20 19 20 21 21 22 22 22 22 21 21 20 20 19 19 19 20 20 20 20 21 21 12 9 15 16 13 13 17 21 15 11 13 15 17 20 22 23 23 22 21 22 21 21 20 18 19 19 18 16 16 19 19 16 16 16 18 18 15 14 13 13 14 15 14 15 16 12 12 18 17 18 20 19 19 20 20 18 15 16 17 17
21 21 20 20 20 20 20 19 19 20 20 21 21 22 21 21 22 22 21 21 20 20 20 21 21 22 25 21 11 13 17 16 16 14 17 22 18 13 13 15 18 19 21 23 23 21 19 19 19 20 22 22 21 18 19 19 16 16 18 18 17 17 19 17 15 15 15 14 16 16 14 14 17 14 14 19 19 18 20 20 21 21 21 20 17 16 16 17
21 21 21 21 21 21 20 19 19 19 20 20 20 21 21 21 22 22 22 22 22 21 21 22 23 24 26 22 15 16 17 16 16 14 17 21 19 15 13 14 17 18 20 22 23 23 19 17 19 21 22 23 22 21 21 20 19 17 18 20 20 19 18 13 14 16 15 14 16 16 14 13 16 16 15 20 19 18 21 21 21 22 21 20 19 17 15 17
21 21 21 21 21 22 21 20 20 20 19 19 19 19 20 20 21 22 23 22 23 22 22 23 23 24 24 22 18 15 15 15 15 15 16 19 19 14 12 13 15 17 18 19 21 23 22 19 19 21 22 21 23 24 21 20 21 20 19 20 19 19 18 13 13 16 15 14 17 17 15 11 12 16 18 21 20 18 22 22 21 22 22 22 21 19 16 17
22 21 21 21 21 22 22 21 21 20 19 20 19 18 19 20 19 21 22 22 23 22 23 23 24 24 21 19 20 16 13 14 14 14 15 15 15 12 11 14 16 16 17 17 20 21 22 21 20 21 22 23 24 24 23 22 20 19 19 20 19 20 19 14 12 15 16 16 16 18 17 10 8 16 21 22 21 20 22 22 22 22 22 23 23 21 19 17
22 21 21 22 21 22 22 21 21 21 19 20 20 17 18 20 20 19 21 22 22 23 23 22 24 24 13 10 18 14 9 13 13 11 12 12 14 15 13 15 16 15 16 17 20 21 21 22 21 21 23 26 26 26 27 25 20 18 19 20 19 21 21 16 13 14 17 18 17 18 19 13 8 15 22 22 20 21 22 22 22 23 23 23 23 23 22 19
22 22 21 22 22 23 23 22 21 21 20 19 21 19 18 20 19 18 22 23 22 22 20 17 22 24 10 2 8 7 3 13 17 11 11 10 11 16 16 16 15 16 18 19 21 22 21 22 24 26 28 29 29 30 29 26 23 20 20 20 20 20 19 15 14 16 18 19 19 18 18 16 11 15 21 22 20 22 22 21 22 23 23 24 24 24 24 22
23 22 22 21 22 22 23 23 22 22 21 19 20 19 20 22 17 17 25 23 20 21 18 19 24 26 19 7 2 4 5 15 19 12 11 11 10 13 15 16 17 18 21 21 21 22 22 24 28 31 31 29 29 31 30 27 25 24 23 23 23 21 17 16 18 20 20 19 20 19 18 17 14 15 21 21 20 23 23 22 23 23 23 25 25 24 25 24
24 23 23 22 22 22 22 22 22 22 22 20 20 19 21 23 17 19 27 25 21 22 21 22 27 28 23 17 12 11 10 16 18 14 15 13 11 13 15 18 20 21 24 21 19 20 23 28 31 32 31 28 28 29 30 29 27 28 28 24 22 21 19 17 19 22 25 22 20 20 19 19 17 17 20 21 20 23 24 23 23 24 24 24 25 24 24 25
25 24 23 23 22 23 22 22 22 22 21 21 20 19 22 22 20 22 27 28 24 22 23 21 26 30 25 22 23 20 16 19 20 19 19 17 16 17 17 20 23 23 23 22 22 22 27 33 32 30 29 28 28 28 31 31 29 29 29 26 24 22 20 19 19 21 27 23 19 21 21 20 20 20 20 21 22 22 23 23 23 23 24 24 25 24 23 25
27 26 25 23 22 23 23 22 22 21 21 22 20 20 22 21 21 24 26 30 26 20 23 24 23 26 24 23 25 26 25 25 22 22 21 19 20 20 18 21 23 23 23 25 27 27 28 31 29 27 27 28 30 30 30 32 32 31 29 28 26 23 20 20 19 19 26 23 17 20 21 20 21 22 22 22 22 22 22 23 23 23 24 24 25 24 23 24
28 27 26 25 22 22 23 22 21 22 22 21 21 21 21 21 22 23 25 31 32 21 18 21 22 25 24 21 22 28 31 29 25 23 21 21 21 20 21 22 22 24 25 26 28 30 29 24 23 26 28 29 31 32 31 32 33 33 32 30 27 24 22 21 19 16 23 21 15 16 19 21 22 22 24 24 23 23 23 23 23 24 24 24 24 25 24 24
28 28 26 26 24 22 23 22 19 21 21 20 23 21 19 20 20 22 24 27 32 26 17 18 22 22 20 19 22 27 29 29 30 27 24 25 24 22 22 22 23 25 26 26 27 31 30 23 21 25 29 31 31 33 34 33 31 32 33 33 29 25 22 22 21 17 20 19 16 16 14 17 22 24 24 25 25 25 25 25 25 25 25 25 24 25 25 25
28 29 27 26 25 22 21 22 19 18 20 20 22 20 17 18 16 19 22 22 29 28 21 21 20 18 18 20 24 24 23 29 32 29 27 27 26 24 23 22 24 25 24 25 26 29 30 26 24 25 28 31 32 34 35 34 32 31 32 32 32 30 25 23 24 23 21 19 18 19 16 14 19 23 25 25 26 26 26 25 26 26 26 26 25 25 26 25
29 29 28 26 26 24 20 21 19 17 20 21 20 17 16 16 13 15 16 14 18 17 15 19 17 16 17 18 23 26 23 22 26 30 29 29 29 26 25 24 23 24 22 22 26 27 26 27 28 27 27 30 34 35 34 35 35 32 29 29 30 33 30 26 26 26 23 21 21 23 22 19 20 23 24 26 27 27 27 28 27 27 28 27 26 25 26 26
29 30 30 26 26 27 22 20 20 18 20 21 18 16 16 14 12 10 8 6 6 2 10 17 17 20 17 17 25 31 22 11 17 28 27 28 31 28 28 27 24 24 23 23 27 26 23 27 29 28 28 30 34 35 32 33 36 33 27 26 29 31 31 30 29 27 25 23 22 24 24 19 19 22 22 25 29 29 30 30 30 30 29 29 28 26 26 26
30 31 31 27 26 28 25 22 21 18 19 19 17 16 14 11 9 6 5 7 8 7 12 14 16 20 19 21 25 29 24 14 14 20 20 27 32 30 29 28 25 24 24 26 27 24 22 25 27 29 30 31 31 31 31 33 35 32 27 26 28 29 30 31 29 29 28 22 19 22 23 16 15 22 24 24 29 31 32 31 30 31 31 30 29 28 27 27
29 30 31 29 26 26 25 24 23 20 18 17 16 15 13 10 9 7 8 11 10 9 13 16 16 16 18 24 24 25 27 22 15 14 19 27 31 30 27 24 25 26 25 27 29 27 24 22 24 30 31 29 27 27 31 33 32 30 28 28 27 28 31 31 31 32 25 17 20 25 25 20 14 20 26 26 27 28 30 31 31 30 31 30 29 29 28 27
29 29 30 30 28 27 24 23 26 21 16 15 14 13 13 12 11 11 11 12 11 10 11 15 16 17 20 24 25 26 28 25 19 18 23 27 29 29 27 24 25 27 26 28 29 28 28 26 25 28 30 29 27 26 28 30 31 32 30 29 27 26 29 29 31 31 18 13 22 28 28 26 19 20 26 27 27 28 28 30 31 31 32 31 31 30 29 29
29 28 29 29 29 27 23 23 25 20 16 14 12 14 14 11 16 22 16 10 9 13 16 15 15 21 24 24 25 26 29 28 24 23 25 28 30 32 32 30 28 27 26 27 27 27 31 33 28 24 27 30 29 27 28 29 32 34 33 31 25 19 19 19 19 20 15 16 25 29 29 28 26 27 28 26 27 29 30 29 29 32 33 32 32 30 31 32
28 28 27 27 29 27 24 23 23 20 18 14 13 17 16 12 19 27 25 18 9 6 10 13 16 20 23 26 26 25 28 30 27 26 26 27 29 31 34 33 30 27 25 25 26 26 27 30 32 28 25 29 31 29 30 31 31 32 34 33 25 14 10 11 11 10 13 20 27 30 28 24 26 29 29 30 28 27 29 29 28 29 30 30 31 31 32 33
28 28 26 26 27 27 24 23 22 20 18 15 16 19 19 21 24 23 25 28 22 13 9 8 12 19 23 26 25 25 28 30 29 29 27 28 30 30 32 34 33 30 25 23 25 26 23 23 32 34 27 27 33 34 30 28 29 32 34 33 30 23 15 11 10 11 13 19 25 28 24 21 25 25 25 30 31 28 27 29 28 28 29 30 31 32 32 31
28 28 27 25 25 26 25 23 22 20 18 17 20 22 28 32 27 21 21 24 25 25 23 17 15 19 24 26 26 27 28 28 29 31 31 32 32 31 32 34 37 34 29 25 23 25 25 23 27 33 30 27 32 34 30 26 27 31 34 35 35 33 26 19 18 21 21 17 19 23 24 25 27 23 21 23 27 30 29 26 27 28 29 30 31 33 31 29
29 28 27 24 24 24 23 23 21 20 20 19 23 30 39 36 23 18 19 17 19 23 25 25 23 22 24 26 27 28 30 28 28 31 33 34 34 33 32 32 36 38 34 29 23 22 24 24 23 28 32 31 30 30 31 31 28 27 33 38 37 34 32 26 22 26 24 15 15 23 25 26 26 23 22 21 22 28 29 27 27 27 27 28 29 34 34 32
31 30 25 22 24 23 21 21 19 20 21 22 29 38 40 34 26 23 20 17 18 20 22 25 26 26 26 26 27 28 30 30 30 30 31 33 34 35 34 32 33 38 38 32 27 23 21 21 22 26 31 33 31 27 30 35 33 29 30 34 34 32 33 29 20 18 17 11 13 24 27 23 21 20 22 25 23 25 27 28 28 26 27 28 27 31 35 33
32 32 24 18 20 18 18 21 20 21 22 24 36 44 38 31 28 27 26 24 22 21 24 26 25 25 27 27 27 27 29 31 31 31 30 30 32 34 35 33 31 35 39 35 30 26 22 20 21 25 28 30 31 30 29 35 39 38 32 28 30 30 30 31 22 13 12 9 9 21 26 24 25 24 23 26 26 26 26 27 28 26 27 29 28 31 34 32
32 31 20 10 10 9 11 17 17 19 23 29 37 40 36 34 32 27 26 27 27 26 27 28 25 25 27 28 27 27 29 32 32 32 31 29 29 29 33 34 32 32 36 38 35 29 23 20 19 21 25 27 32 35 35 35 38 41 37 31 31 30 27 30 29 21 15 9 9 16 18 20 27 29 25 26 29 29 28 28 30 29 29 30 29 32 34 33
29 28 19 8 9 12 12 13 15 19 25 32 36 34 30 30 30 28 26 27 30 29 27 27 26 26 27 27 28 29 29 32 33 34 32 30 28 27 30 33 33 32 33 36 37 33 27 23 20 19 22 28 34 38 37 34 31 35 39 38 33 31 29 29 30 31 24 12 8 10 12 20 28 27 25 26 26 28 29 28 29 30 30 31 31 31 33 33
26 26 18 5 6 17 16 14 18 22 26 32 35 34 31 28 27 27 26 27 32 33 30 28 27 28 29 28 28 29 29 30 32 33 33 32 30 27 27 31 32 31 32 35 37 35 30 25 21 22 24 29 34 35 34 31 29 31 36 40 36 31 29 23 20 30 33 23 16 12 10 20 27 24 24 25 23 26 30 29 31 31 29 31 33 33 33 36
26 26 16 3 10 15 15 18 22 23 27 32 31 30 30 30 30 29 28 28 30 33 34 34 32 29 28 30 29 28 28 30 31 32 32 33 33 29 25 26 30 31 31 34 36 36 32 26 23 25 27 27 27 29 31 30 30 30 31 37 39 35 33 25 16 23 31 29 28 24 16 19 25 23 23 24 21 23 26 26 28 31 30 30 32 31 32 35
27 28 23 15 18 20 19 24 27 25 29 31 30 30 29 29 31 30 29 30 30 31 32 34 37 33 29 29 30 28 28 29 31 33 31 31 33 33 29 27 29 31 32 32 33 34 32 29 27 24 24 27 26 27 31 30 30 32 32 34 38 40 41 34 23 24 28 28 28 23 16 21 27 24 21 21 21 22 24 24 25 27 29 30 32 31 29 32
28 30 28 19 18 24 26 29 29 28 29 29 29 31 32 32 33 32 30 30 30 31 32 32 33 35 33 31 30 29 28 27 29 31 31 30 30 31 32 31 29 30 32 30 30 32 33 32 29 21 16 20 24 24 29 33 32 33 33 33 35 39 42 40 33 28 25 29 32 22 13 20 29 27 22 19 20 23 25 23 23 26 27 29 33 34 30 29
27 28 27 18 11 20 28 30 29 28 28 28 29 30 29 29 31 32 33 35 33 30 31 32 29 30 32 33 34 34 31 29 27 27 28 30 30 30 31 32 31 30 30 29 28 30 32 33 32 25 15 13 16 18 24 31 33 32 32 32 33 35 38 40 40 33 23 24 32 29 21 22 28 30 28 23 20 21 22 23 24 25 25 25 29 32 31 26
22 23 23 18 11 17 26 27 28 30 28 27 29 31 29 25 25 25 25 30 37 37 35 34 30 28 27 28 31 35 36 35 31 27 27 28 28 29 32 32 31 31 32 31 29 30 30 31 34 35 29 22 20 21 22 25 29 31 31 33 33 34 35 36 38 37 32 26 26 28 27 27 27 29 31 30 26 22 20 21 25 25 22 23 26 28 28 22
19 20 18 16 13 16 22 22 24 28 30 30 31 33 33 28 27 28 23 19 22 28 32 35 34 33 31 28 27 30 34 36 35 33 32 29 27 27 32 35 30 30 34 32 27 28 31 30 33 37 37 32 26 25 25 26 27 30 31 32 33 32 34 36 36 38 38 30 25 26 27 29 31 28 27 29 31 30 24 20 23 25 21 23 28 28 27 24
18 18 15 14 16 18 21 21 21 23 26 27 28 31 36 34 30 28 26 23 19 14 16 23 28 26 26 26 25 24 27 31 36 38 36 31 29 27 30 35 33 32 37 34 26 25 28 30 30 33 37 38 34 29 28 27 27 28 29 30 32 32 34 36 37 37 37 32 30 31 29 29 31 31 30 27 25 29 29 23 23 25 22 21 26 26 25 25
18 19 17 18 21 23 24 24 24 24 25 24 24 26 32 37 34 27 23 25 28 22 16 17 20 18 17 17 15 16 19 20 22 30 35 33 32 30 29 33 35 33 34 34 30 25 25 27 27 29 32 36 37 34 32 30 28 29 29 28 29 31 33 35 35 34 35 36 38 37 31 30 31 31 34 35 28 24 25 24 24 27 27 26 24 21 21 25
19 20 21 22 24 23 22 22 23 25 25 24 24 24 25 30 34 34 27 20 22 24 18 18 23 23 20 17 11 12 18 18 15 14 20 26 28 31 31 32 35 36 34 34 32 27 26 25 23 25 27 27 31 35 36 34 31 29 29 29 30 31 32 35 35 34 35 37 39 37 33 33 34 31 32 38 38 32 27 25 25 26 29 31 30 26 24 26
20 21 23 26 28 24 21 21 21 23 24 22 22 22 23 25 27 32 34 25 22 26 21 19 25 27 25 23 18 17 20 18 16 14 15 21 27 31 30 29 31 34 35 37 36 32 29 27 23 23 24 25 27 30 34 36 34 32 32 32 33 35 35 34 33 32 33 35 34 34 34 35 35 33 33 34 37 39 36 33 31 30 30 32 33 32 31 29
20 22 21 24 29 26 22 22 21 22 23 22 20 20 21 23 22 23 28 27 24 26 22 21 27 29 29 30 26 22 21 18 21 22 17 18 25 29 27 26 28 31 31 34 36 35 32 30 27 24 25 26 25 23 26 29 27 30 37 37 34 33 33 31 26 26 31 33 32 32 32 30 29 31 34 33 31 34 38 38 37 35 33 32 33 34 34 33
Wind_Direction
277 278 279 280 281 280 280 281 283 284 286 289 292 294 292 289 285 282 279 276 274 272 276 281 285 287 284 284 283 283 288 286 270 255 241 227 227 235 238 239 243 245 247 248 249 253 252 257 256 256 280 278 313 239 239 263 233 257 284 289 287 301 341 25 47 84 122 121 134 142 140 135 135 138 139 136 136 140 137 140 138 132 145 158 171 170 165 164
277 277 278 279 279 280 279 280 281 282 283 284 286 289 290 291 288 285 283 281 278 276 276 277 283 286 286 287 285 285 289 290 276 259 243 225 224 231 234 234 238 239 241 243 245 249 248 254 253 248 267 255 240 235 229 241 228 229 251 269 282 274 250 319 29 109 138 131 139 146 149 145 141 142 142 140 140 145 146 144 136 140 158 171 171 169 168 168
276 276 276 276 277 277 277 277 279 280 281 282 283 284 286 289 289 289 287 285 283 281 280 279 282 283 287 287 287 290 289 292 286 264 242 228 224 226 229 229 232 234 236 237 237 241 237 245 254 251 256 239 235 235 224 229 225 224 240 259 261 263 299 307 62 124 142 141 148 152 154 148 148 146 145 149 146 152 158 152 148 159 173 172 168 171 169 170
275 275 275 275 275 275 275 275 275 276 278 279 281 282 283 284 286 288 287 288 287 286 287 285 283 282 286 286 287 291 292 307 288 264 245 231 227 222 224 224 226 230 230 231 230 230 215 209 236 238 230 235 236 231 218 219 225 219 221 247 265 284 299 256 193 170 147 155 159 155 160 154 155 154 151 157 150 158 169 161 160 177 188 169 169 173 166 172
274 274 273 274 274 274 274 274 274 275 275 276 278 280 281 282 283 284 285 287 288 290 292 290 289 284 282 284 286 285 288 339 280 267 258 237 232 221 219 218 221 225 224 226 222 216 208 197 209 219 221 232 236 227 221 220 230 233 221 228 275 299 292 158 176 187 157 167 164 161 170 159 161 161 157 164 159 169 174 167 166 184 197 169 171 174 167 175
277 275 274 274 273 274 274 273 273 273 273 274 275 277 278 280 281 282 282 283 285 289 291 293 294 289 284 280 280 278 256 225 243 274 272 249 240 227 219 215 215 220 220 222 217 207 208 203 205 216 222 231 235 229 225 220 220 246 241 222 245 286 312 107 189 196 174 182 173 171 173 164 168 162 159 168 168 180 173 168 169 179 193 175 171 173 170 175
280 278 277 275 274 274 273 273 273 272 272 272 272 273 274 277 278 279 280 281 282 284 286 290 291 291 287 277 277 275 255 245 258 270 268 258 248 234 222 215 212 216 218 219 217 208 207 208 208 216 223 228 236 236 236 230 215 223 240 228 241 261 273 276 212 207 205 196 182 178 177 175 178 169 166 169 158 163 164 166 173 179 198 190 172 172 172 174
281 280 279 278 276 275 274 273 272 272 271 270 270 270 271 273 275 277 278 279 280 281 283 284 286 287 284 280 278 273 273 287 276 267 267 266 255 237 224 217 213 214 217 218 217 210 207 211 211 216 224 228 233 234 242 247 228 217 219 233 246 247 247 240 232 226 218 206 188 184 187 181 178 174 174 174 156 149 156 167 180 184 193 195 180 174 175 174
281 280 279 278 278 277 276 275 274 273 272 271 270 268 268 269 271 274 274 276 278 279 280 278 281 281 278 278 275 274 314 297 269 270 272 269 260 240 225 217 214 215 216 216 215 208 204 213 215 215 225 231 235 237 237 244 243 234 228 238 248 244 236 233 238 231 221 216 194 189 195 182 175 178 177 178 165 152 158 167 184 191 183 187 186 177 178 180
283 282 281 279 278 278 277 276 275 274 274 273 271 269 268 266 267 269 271 273 274 276 277 277 277 274 273 272 268 267 252 245 269 283 279 266 256 241 227 218 214 213 216 214 213 208 202 209 216 219 230 236 238 241 238 237 243 245 244 239 232 237 237 237 243 230 223 222 201 195 197 181 179 186 179 177 170 163 162 165 181 192 181 186 186 180 182 185
286 284 283 281 279 278 277 277 276 275 275 274 273 272 270 268 266 265 267 269 271 274 274 275 274 271 271 265 262 260 245 236 268 282 282 275 257 237 229 223 215 211 215 215 213 211 204 204 210 220 232 238 240 241 241 243 247 250 254 243 232 242 233 230 243 230 218 220 206 196 195 182 182 191 182 176 170 167 167 167 178 183 180 188 189 184 185 188
289 287 286 284 282 281 279 278 277 277 276 275 274 273 271 270 267 265 265 265 267 270 271 273 272 270 268 262 261 258 244 236 238 254 273 282 271 242 230 223 218 212 212 215 215 212 208 205 207 220 226 232 238 239 243 247 251 257 265 255 245 251 235 230 241 227 219 222 203 190 196 192 188 192 183 180 173 167 172 173 176 177 181 189 192 190 187 189
294 291 289 286 285 283 282 281 279 278 277 276 275 274 272 270 269 267 264 263 264 266 268 270 270 270 268 264 262 257 249 247 247 246 261 272 274 258 237 222 219 216 211 213 214 212 212 210 211 221 225 230 235 237 244 247 251 257 259 256 252 249 238 232 230 223 229 225 196 188 203 200 193 192 182 182 177 172 176 178 177 178 183 189 194 194 189 188
297 295 292 289 287 285 284 283 281 280 278 277 276 275 273 271 269 268 266 264 263 262 265 267 269 270 268 266 263 258 257 253 250 242 244 260 271 262 245 228 219 217 215 213 212 211 214 218 220 224 226 230 235 241 250 250 254 255 244 242 244 249 247 227 212 217 226 214 189 191 209 206 196 192 187 186 180 179 182 181 181 181 185 190 193 196 193 190
297 296 294 292 290 288 286 284 283 282 280 280 278 277 275 272 270 269 267 265 263 262 262 264 266 269 271 273 267 253 255 256 253 247 241 251 261 256 245 238 227 219 217 215 213 209 208 216 225 229 229 229 232 241 252 250 246 245 238 234 228 239 252 230 208 217 219 200 186 198 212 208 200 194 191 189 183 182 185 183 184 184 187 192 194 200 199 193
295 295 294 292 291 290 288 286 285 282 283 282 279 279 277 274 272 270 268 265 264 262 261 264 264 266 272 278 274 257 253 258 257 253 246 244 249 248 236 239 237 225 218 217 217 212 207 212 222 229 230 229 229 233 245 249 242 234 233 238 227 226 239 231 212 215 216 198 191 205 211 205 208 205 194 189 187 186 187 187 187 188 189 193 196 203 206 200
292 293 293 292 291 290 288 288 287 285 285 283 282 283 280 278 273 270 269 266 265 263 261 262 263 265 268 271 273 273 269 265 262 254 247 238 231 227 225 232 234 226 219 217 220 215 210 212 217 225 227 225 225 225 231 239 239 229 225 235 236 230 230 218 201 208 209 201 199 209 213 218 220 204 193 188 191 190 190 191 190 191 192 196 199 202 212 213
291 291 290 290 290 289 289 289 288 287 287 286 285 283 281 280 276 273 271 266 264 261 258 259 261 264 271 279 272 274 275 257 254 249 239 231 213 202 209 225 224 216 214 216 220 215 210 214 217 220 223 222 220 219 222 225 227 228 222 224 235 241 237 217 196 201 206 206 205 208 215 223 212 193 189 188 192 193 193 195 194 193 194 199 202 202 213 223
291 291 289 289 288 288 288 288 289 288 288 288 287 287 284 279 280 281 271 262 259 257 259 261 255 247 233 340 295 281 274 235 236 234 223 226 213 201 199 213 216 207 208 213 218 214 205 210 214 217 219 217 216 216 219 221 224 231 229 223 227 237 241 228 210 204 206 211 209 209 214 213 206 197 192 190 194 195 194 197 197 197 198 201 204 203 209 224
291 290 289 287 285 286 286 287 289 288 289 290 288 290 285 279 283 282 271 265 262 257 249 245 250 243 221 194 266 257 216 220 228 221 211 220 218 213 207 207 209 207 208 209 214 212 205 209 213 215 217 215 216 218 219 224 228 234 239 234 229 233 235 232 229 214 205 212 212 213 216 209 209 203 193 192 195 197 197 198 199 200 202 203 206 206 207 220
292 290 289 287 286 284 282 284 286 287 290 290 289 291 285 283 286 277 274 275 269 262 252 238 244 251 233 208 208 226 235 238 235 216 210 220 215 217 217 208 205 209 212 208 211 213 209 216 218 217 218 217 218 220 221 227 229 234 242 243 239 241 238 231 233 214 198 208 211 210 217 214 211 206 197 197 197 198 200 200 201 202 204 206 208 210 208 214
292 291 289 288 288 285 282 282 282 284 287 286 288 289 284 286 286 280 281 278 266 261 263 245 236 247 245 224 210 206 224 240 238 226 219 220 217 219 217 210 208 210 212 208 210 212 212 221 222 219 220 219 220 221 221 226 228 232 239 245 245 247 245 237 235 211 191 200 209 206 215 218 213 210 206 202 200 203 204 203 204 204 205 207 208 213 215 214
291 290 289 289 288 287 285 282 281 283 284 284 284 283 283 285 285 284 285 282 273 258 259 255 244 246 247 237 218 206 216 224 226 233 230 218 217 219 213 210 213 213 213 210 211 212 216 223 224 220 220 219 220 220 220 224 228 231 235 239 244 247 247 239 236 214 190 195 210 206 212 220 219 217 214 210 206 207 208 206 207 206 205 206 209 216 219 217
290 289 288 287 287 288 286 282 283 282 281 283 280 279 282 284 286 286 286 285 279 265 261 262 253 247 244 239 226 216 221 223 221 226 226 217 213 214 213 212 216 217 216 215 215 220 224 226 223 220 220 219 219 220 220 221 225 229 232 234 238 242 244 240 240 218 188 192 212 210 213 222 222 221 218 216 213 210 209 208 208 208 208 207 208 214 219 218
288 287 286 286 285 286 286 283 282 281 281 281 277 279 283 284 289 289 291 294 284 276 274 264 252 249 244 230 222 221 224 227 225 219 217 220 214 208 212 213 216 221 221 219 220 226 231 229 222 219 219 219 220 219 219 220 223 226 229 232 235 238 241 241 242 223 192 195 211 209 216 225 222 223 221 216 215 213 210 209 210 210 210 209 208 210 216 218
284 284 283 283 283 282 284 284 279 278 277 273 275 281 283 285 291 293 299 301 290 285 276 262 255 248 236 219 212 212 220 231 232 222 214 221 218 209 212 215 217 222 222 222 226 230 232 228 223 220 218 219 220 221 219 218 223 227 225 229 234 238 242 242 243 236 215 207 210 210 220 230 225 225 222 218 218 216 211 211 212 212 211 212 211 209 212 215
280 281 280 280 281 278 278 282 278 273 271 269 274 280 280 285 289 299 311 300 292 294 254 239 242 235 227 218 206 197 208 231 233 225 215 214 217 212 214 217 217 222 220 220 228 229 227 225 224 222 219 219 220 221 219 216 222 228 225 225 229 235 241 241 243 245 232 217 215 218 225 233 232 229 223 221 223 220 216 215 214 214 214 213 215 213 211 215
277 278 277 277 278 276 274 277 276 269 267 268 272 273 271 278 280 291 314 285 280 289 212 219 224 224 212 203 208 204 206 215 219 224 217 207 212 211 215 219 217 223 220 218 228 228 223 224 223 221 220 220 221 221 219 218 222 227 226 226 227 229 236 242 244 243 236 225 216 214 220 233 237 230 224 223 224 224 221 217 215 216 217 215 216 216 214 215
275 276 276 274 274 276 274 273 274 269 266 266 263 263 261 264 265 262 272 257 244 235 234 225 218 224 205 193 212 217 213 212 215 226 213 202 210 210 214 221 219 224 224 222 231 231 225 225 224 223 222 222 223 222 220 221 223 225 227 230 231 229 229 236 243 245 242 237 229 220 216 225 241 232 226 225 223 223 222 220 219 218 217 218 218 218 217 218
275 275 275 273 270 272 273 273 273 269 266 263 256 255 250 240 234 231 234 237 249 261 242 221 216 222 202 194 212 218 211 213 215 209 194 197 210 213 215 223 223 228 230 227 232 234 232 230 223 224 226 224 225 225 222 223 224 225 226 229 235 235 232 231 234 241 247 244 240 238 224 218 237 237 229 228 226 224 223 221 221 219 216 218 220 219 219 220
277 275 274 274 270 267 269 272 271 269 267 259 248 243 236 227 220 222 230 235 252 256 219 210 216 213 202 199 210 212 206 209 209 194 188 193 203 209 211 215 218 225 232 230 230 232 233 233 225 222 225 225 227 227 224 222 222 222 223 226 230 234 238 237 228 227 237 240 237 245 238 224 227 233 230 230 229 228 227 223 220 217 216 219 222 222 220 218
280 276 274 274 271 266 264 267 267 267 263 251 235 226 219 221 225 223 226 238 256 244 219 212 212 205 205 206 209 208 202 204 204 195 191 193 199 203 205 206 206 212 222 226 226 225 228 231 228 223 222 222 224 223 221 221 220 219 220 222 224 226 232 237 229 223 234 241 237 242 242 233 231 233 232 233 230 228 228 227 221 218 219 220 219 216 214 220
284 279 275 274 273 269 262 261 265 262 256 245 224 214 206 220 233 223 221 226 234 244 222 218 219 211 207 210 211 208 203 205 205 201 199 199 203 207 209 208 204 206 215 219 221 222 224 227 227 226 221 219 219 216 215 217 216 215 216 217 219 221 222 228 230 234 240 237 233 237 242 242 240 235 232 233 232 230 229 226 222 219 217 214 212 213 218 229
290 284 279 273 273 272 263 257 259 257 253 241 217 206 208 227 235 224 223 228 230 246 252 236 231 222 213 213 214 209 205 207 207 205 205 204 207 211 211 211 209 209 215 220 221 222 223 222 220 221 219 214 215 216 214 213 213 214 215 218 222 222 223 226 222 225 236 237 235 237 239 242 243 237 230 231 230 229 229 224 222 220 215 212 214 224 233 235
293 289 285 278 272 271 265 257 254 252 248 234 213 208 219 229 232 228 230 231 232 243 252 255 249 235 225 219 218 215 211 210 208 208 210 208 211 213 211 212 211 209 212 220 223 222 226 230 220 217 218 215 213 215 213 213 217 216 215 220 224 223 225 232 234 233 232 235 238 238 237 238 242 241 230 229 229 226 225 224 222 219 217 219 219 224 228 225
296 292 290 287 277 271 267 257 249 246 244 229 214 219 226 229 229 231 235 237 237 243 251 254 246 240 235 225 220 220 219 217 210 210 214 214 215 217 214 214 213 210 209 213 219 220 225 232 224 215 218 217 215 213 210 212 218 216 213 219 222 222 225 231 241 241 235 233 235 237 240 236 237 241 230 225 229 225 222 221 222 219 217 220 219 217 216 215
298 294 295 296 283 272 265 258 247 242 241 226 222 229 233 233 234 236 236 238 244 247 250 251 242 235 236 232 225 219 218 219 215 213 216 215 217 219 217 217 215 212 211 211 218 225 230 236 226 215 217 216 213 212 212 214 218 219 216 217 218 222 226 230 238 241 233 236 234 232 238 236 233 238 226 220 225 223 219 218 216 215 216 217 216 215 214 217
301 299 305 305 288 274 259 255 248 240 238 229 231 237 238 238 238 238 238 242 255 261 255 251 244 237 236 234 229 222 215 216 216 218 219 218 221 220 216 218 218 214 213 213 219 225 232 243 234 217 217 213 206 208 216 215 217 223 223 216 213 217 221 223 229 239 231 234 238 232 237 237 237 238 224 219 224 220 214 214 213 215 215 212 213 215 216 220
305 306 311 310 300 289 248 243 241 237 236 232 237 243 244 244 241 233 230 236 250 262 261 255 249 244 240 235 232 228 221 219 219 221 222 222 224 221 215 217 218 215 212 212 218 222 224 237 241 223 213 207 200 204 214 214 212 220 229 230 222 220 220 220 225 233 232 231 236 234 235 233 234 237 230 223 223 216 207 206 211 218 219 215 216 220 218 215
306 304 305 303 284 270 246 237 237 236 236 236 241 246 249 252 251 242 232 230 240 250 256 255 250 248 246 240 235 233 229 226 223 223 223 223 225 223 217 215 216 215 212 209 215 221 221 228 238 228 209 202 203 205 209 212 207 210 223 232 230 221 220 225 228 227 227 233 241 234 236 234 232 235 235 232 225 213 208 211 214 217 221 221 220 221 216 209
302 299 307 342 258 260 263 261 250 242 242 244 247 250 252 255 257 254 245 240 244 248 252 255 254 250 249 246 240 236 235 234 229 224 223 223 225 225 218 215 214 212 210 209 210 215 219 222 228 229 215 208 211 211 209 211 210 209 215 224 228 221 214 220 229 224 222 225 233 241 244 235 233 233 236 240 231 213 212 221 221 216 219 225 224 223 220 216
296 289 287 199 205 245 262 261 256 249 248 249 250 254 256 256 256 255 251 247 249 250 251 253 254 253 251 248 246 242 240 240 236 230 226 221 223 225 219 214 215 212 210 210 210 210 215 218 223 228 226 221 218 214 212 211 213 216 217 218 223 225 220 219 223 223 224 225 229 239 247 238 235 233 233 238 232 216 214 220 220 215 218 225 225 225 228 227
293 285 279 254 235 243 251 255 256 252 251 254 255 255 257 257 258 257 252 248 248 248 248 248 248 249 249 248 249 249 247 246 242 238 235 228 223 224 224 220 217 214 213 213 211 207 211 217 221 223 229 235 233 219 213 212 212 217 221 217 217 222 224 227 227 223 226 229 227 232 238 231 231 234 235 237 235 228 224 221 220 220 220 223 221 221 232 234
295 291 293 285 250 240 245 252 256 255 254 257 259 257 256 255 254 255 253 249 246 246 246 246 246 246 245 246 249 250 249 249 247 244 241 239 231 222 221 222 217 213 213 213 209 205 206 213 218 218 219 232 237 221 207 209 212 215 220 220 218 220 223 229 233 230 227 228 227 232 238 224 223 230 237 236 233 232 229 222 220 224 227 226 219 220 231 228
300 299 301 301 259 237 243 247 252 257 260 260 260 259 258 257 254 252 252 250 245 245 246 244 244 245 244 244 245 246 249 249 251 250 247 247 243 227 218 218 215 212 215 216 211 207 207 209 212 216 214 212 224 219 205 205 212 216 219 221 222 222 222 225 232 236 235 229 228 234 243 231 221 224 230 230 227 224 221 221 225 231 233 225 213 213 221 219
299 299 301 304 281 249 251 252 250 253 258 260 260 256 256 265 261 245 248 256 248 243 247 247 246 246 244 244 243 244 246 247 249 251 249 250 248 233 221 219 216 210 213 218 213 208 211 212 211 216 223 221 219 222 217 209 210 215 217 219 222 223 223 224 227 232 237 238 236 236 242 247 239 224 218 221 225 222 212 215 227 233 229 213 205 209 215 220
287 288 294 300 285 253 248 250 249 252 253 254 259 258 255 267 267 245 244 265 251 242 250 248 241 242 241 243 247 246 244 245 246 249 251 251 252 239 224 221 220 213 214 222 219 209 215 221 215 215 223 230 229 225 223 220 217 218 219 217 220 223 224 225 225 228 232 237 242 238 237 248 249 235 221 217 222 227 224 215 223 235 231 210 208 218 224 222
275 279 282 281 276 262 251 252 259 266 265 262 267 266 256 257 262 255 254 257 242 246 274 253 234 234 237 242 254 256 250 245 241 242 244 246 249 247 231 222 222 215 213 222 228 218 222 229 224 216 217 224 232 232 230 228 223 222 223 221 219 220 224 228 229 229 229 233 240 239 234 238 242 241 241 233 224 229 233 226 222 230 234 220 217 226 227 216
271 275 273 266 267 268 262 260 266 274 277 273 271 270 261 254 253 259 271 268 252 253 288 288 261 246 239 244 257 266 264 265 260 249 242 242 246 247 237 227 223 215 208 216 224 222 228 234 231 228 222 219 224 231 234 235 230 225 225 225 223 221 221 227 232 233 231 234 240 240 237 236 235 238 243 243 240 238 235 230 223 220 223 223 224 230 227 218
274 273 274 271 267 267 268 268 269 272 274 273 270 270 271 263 255 253 258 270 273 271 284 298 279 257 245 244 256 286 288 291 300 271 238 239 242 238 238 235 227 218 212 217 222 222 230 235 228 232 237 228 222 225 229 235 239 238 232 227 229 230 225 222 225 231 234 235 238 240 241 241 238 236 239 242 245 246 239 232 226 220 221 224 226 234 235 228
276 274 277 277 269 266 271 273 273 273 271 271 270 270 271 270 266 262 256 256 270 278 283 291 276 257 244 244 257 293 300 281 256 233 220 229 228 225 235 241 231 222 216 217 221 222 226 232 227 225 235 235 227 224 224 228 237 244 241 233 230 235 237 230 220 221 231 238 241 240 239 239 237 236 237 238 242 244 241 237 235 230 228 227 228 235 239 235
278 275 274 276 271 268 270 273 274 275 272 268 268 270 272 271 269 270 269 264 261 266 274 284 279 266 253 254 264 281 290 277 248 242 252 250 231 220 224 228 227 227 221 214 217 220 220 224 225 224 228 231 231 230 226 226 230 235 236 235 233 235 242 242 233 224 225 231 239 243 242 241 238 235 237 236 235 238 238 239 242 241 236 232 231 235 236 233
Height
3164 3163 3162 3161 3161 3160 3159 3158 3158 3157 3157 3156 3155 3154 3153 3153 3152 3151 3150 3150 3150 3150 3149 3148 3147 3147 3146 3145 3144 3143 3143 3142 3141 3141 3142 3145 3145 3146 3149 3153 3155 3156 3158 3159 3161 3162 3163 3164 3166 3168 3168 3169 3169 3170 3172 3170 3171 3172 3171 3170 3169 3169 3167 3165 3165 3165 3165 3165 3167 3167 3168 3168 3168 3168 3168 3169 3169 3170 3171 3171 3171 3172 3172 3171 3171 3173 3174 3175
3162 3161 3161 3160 3159 3158 3158 3157 3156 3156 3155 3155 3154 3153 3152 3152 3151 3150 3149 3149 3148 3148 3148 3147 3146 3145 3145 3144 3142 3142 3142 3140 3139 3139 3140 3143 3143 3145 3147 3150 3152 3154 3156 3158 3160 3161 3162 3163 3165 3167 3167 3168 3169 3171 3172 3171 3171 3172 3171 3170 3169 3168 3167 3166 3166 3166 3166 3166 3167 3168 3168 3168 3168 3168 3168 3169 3169 3170 3171 3171 3172 3171 3171 3171 3172 3173 3174 3176
3160 3159 3159 3158 3157 3157 3156 3155 3155 3154 3154 3153 3153 3152 3151 3151 3150 3149 3149 3148 3147 3147 3146 3146 3145 3144 3143 3142 3141 3141 3140 3139 3137 3137 3138 3140 3142 3144 3145 3148 3150 3152 3154 3157 3158 3160 3162 3162 3164 3166 3166 3167 3169 3171 3172 3171 3171 3171 3170 3170 3168 3166 3167 3167 3167 3166 3166 3166 3167 3168 3168 3167 3168 3167 3167 3169 3169 3170 3170 3170 3171 3170 3169 3171 3172 3173 3174 3176
3158 3157 3157 3156 3155 3155 3154 3154 3153 3153 3153 3152 3151 3151 3150 3150 3149 3148 3148 3147 3146 3145 3145 3145 3144 3143 3142 3141 3140 3139 3139 3138 3135 3135 3137 3139 3140 3142 3144 3146 3148 3150 3153 3155 3157 3159 3161 3164 3165 3166 3166 3168 3169 3170 3171 3170 3170 3170 3170 3169 3168 3167 3166 3165 3166 3167 3166 3167 3167 3167 3168 3167 3168 3167 3168 3169 3169 3170 3170 3171 3171 3169 3169 3170 3171 3173 3174 3176
3156 3155 3155 3154 3154 3153 3152 3152 3152 3151 3151 3151 3150 3149 3149 3148 3148 3147 3147 3146 3145 3145 3144 3143 3143 3142 3141 3140 3139 3139 3139 3138 3135 3134 3136 3138 3139 3141 3142 3144 3146 3148 3151 3153 3155 3158 3160 3163 3166 3167 3167 3168 3169 3169 3170 3169 3169 3169 3169 3168 3168 3168 3167 3164 3166 3167 3166 3167 3167 3167 3168 3167 3168 3168 3168 3169 3169 3170 3170 3170 3171 3169 3169 3170 3171 3172 3174 3176
3154 3153 3153 3152 3152 3151 3150 3150 3150 3150 3149 3149 3149 3148 3147 3147 3146 3146 3145 3145 3144 3144 3143 3142 3142 3141 3141 3139 3138 3138 3138 3137 3135 3134 3135 3137 3138 3139 3141 3142 3144 3146 3148 3150 3152 3156 3159 3162 3165 3166 3167 3167 3167 3167 3168 3168 3168 3168 3167 3167 3167 3167 3166 3164 3166 3167 3166 3167 3167 3167 3167 3167 3168 3168 3169 3169 3169 3170 3169 3170 3170 3169 3169 3171 3172 3172 3174 3176
3151 3151 3150 3150 3150 3149 3148 3148 3148 3148 3148 3147 3147 3147 3146 3145 3145 3144 3144 3144 3143 3143 3142 3141 3141 3140 3140 3138 3138 3137 3136 3136 3134 3133 3134 3136 3137 3138 3140 3141 3143 3144 3146 3148 3150 3154 3157 3159 3162 3165 3166 3166 3166 3166 3165 3165 3164 3165 3165 3166 3166 3165 3164 3163 3166 3166 3166 3166 3166 3167 3167 3167 3168 3168 3169 3169 3170 3169 3169 3169 3169 3169 3169 3171 3172 3173 3174 3176
3149 3148 3148 3148 3147 3147 3146 3146 3146 3146 3145 3145 3145 3145 3144 3144 3143 3143 3142 3142 3142 3141 3141 3140 3140 3139 3138 3138 3137 3135 3135 3134 3132 3131 3133 3134 3136 3137 3138 3140 3141 3143 3144 3147 3149 3152 3155 3158 3160 3163 3164 3164 3165 3165 3164 3163 3162 3161 3162 3164 3165 3164 3163 3164 3166 3166 3166 3166 3166 3166 3166 3167 3167 3168 3168 3169 3170 3170 3168 3168 3168 3169 3169 3170 3172 3173 3174 3176
3146 3146 3145 3145 3145 3144 3144 3144 3143 3143 3143 3143 3143 3143 3143 3142 3142 3141 3141 3140 3140 3140 3139 3139 3138 3138 3137 3137 3135 3134 3135 3134 3131 3131 3132 3133 3134 3135 3136 3138 3140 3141 3143 3145 3147 3150 3153 3156 3158 3161 3162 3163 3164 3164 3163 3163 3161 3160 3160 3162 3163 3163 3163 3164 3164 3165 3165 3165 3165 3166 3166 3166 3167 3167 3168 3169 3169 3170 3169 3168 3168 3168 3169 3170 3171 3172 3174 3175
3144 3143 3143 3143 3142 3142 3141 3141 3141 3141 3141 3141 3141 3141 3141 3141 3140 3140 3139 3139 3138 3138 3138 3137 3137 3136 3136 3135 3134 3134 3134 3134 3132 3130 3130 3131 3132 3134 3135 3136 3138 3140 3142 3143 3145 3147 3150 3154 3157 3160 3161 3162 3162 3162 3162 3161 3160 3160 3159 3159 3161 3161 3162 3163 3163 3163 3163 3164 3164 3165 3165 3165 3166 3167 3168 3168 3168 3170 3170 3168 3168 3168 3169 3170 3170 3172 3173 3175
3143 3142 3141 3141 3140 3140 3139 3139 3138 3138 3138 3138 3138 3138 3138 3138 3138 3138 3137 3137 3136 3136 3136 3135 3135 3135 3134 3133 3132 3132 3132 3134 3134 3131 3128 3128 3131 3132 3133 3134 3136 3138 3140 3142 3144 3146 3148 3152 3156 3159 3160 3160 3160 3161 3160 3160 3159 3158 3157 3158 3158 3158 3160 3161 3161 3161 3161 3162 3162 3164 3165 3165 3166 3166 3167 3167 3167 3169 3170 3168 3169 3169 3169 3170 3170 3172 3173 3174
3141 3140 3140 3139 3138 3138 3137 3137 3136 3136 3136 3135 3135 3136 3136 3136 3136 3136 3135 3135 3134 3134 3133 3133 3133 3132 3132 3130 3130 3131 3131 3132 3133 3132 3129 3127 3129 3130 3131 3133 3134 3137 3139 3141 3143 3145 3147 3150 3153 3156 3157 3159 3159 3159 3159 3159 3158 3157 3156 3156 3156 3157 3157 3157 3158 3158 3160 3160 3160 3162 3163 3164 3165 3165 3166 3166 3166 3169 3170 3168 3169 3169 3169 3170 3170 3171 3172 3174
3140 3139 3138 3137 3136 3136 3135 3135 3134 3134 3133 3133 3133 3133 3133 3133 3133 3133 3133 3133 3132 3132 3131 3131 3130 3130 3129 3127 3129 3130 3129 3129 3130 3131 3130 3127 3127 3129 3130 3131 3133 3135 3137 3139 3142 3144 3146 3148 3151 3153 3155 3157 3157 3158 3157 3158 3158 3156 3156 3156 3155 3155 3154 3154 3155 3157 3158 3158 3159 3161 3161 3162 3163 3164 3165 3165 3166 3168 3169 3169 3169 3169 3169 3170 3170 3171 3172 3173
3138 3137 3136 3135 3134 3134 3133 3133 3132 3131 3131 3131 3131 3130 3130 3131 3131 3131 3131 3131 3130 3130 3129 3129 3128 3127 3125 3124 3127 3128 3127 3127 3127 3128 3129 3127 3126 3128 3129 3130 3131 3133 3135 3137 3140 3142 3145 3147 3149 3150 3152 3153 3155 3156 3156 3156 3157 3156 3156 3155 3155 3153 3151 3151 3153 3155 3156 3156 3157 3159 3160 3161 3162 3163 3164 3164 3165 3167 3168 3168 3169 3169 3169 3169 3170 3171 3172 3173
3136 3136 3135 3134 3133 3132 3131 3131 3130 3129 3129 3129 3128 3128 3128 3128 3128 3128 3128 3128 3128 3127 3127 3126 3125 3125 3122 3122 3124 3125 3124 3125 3124 3126 3127 3126 3125 3126 3127 3129 3130 3131 3133 3135 3138 3140 3143 3146 3148 3148 3150 3152 3153 3154 3154 3154 3154 3154 3153 3152 3153 3152 3150 3150 3151 3153 3154 3155 3157 3158 3159 3160 3161 3162 3163 3163 3164 3166 3167 3168 3168 3169 3169 3169 3169 3170 3171 3172
3135 3134 3133 3132 3131 3130 3129 3128 3128 3127 3127 3127 3126 3126 3126 3125 3125 3125 3124 3125 3125 3125 3125 3124 3123 3122 3121 3120 3120 3122 3123 3122 3123 3123 3124 3124 3124 3125 3127 3128 3129 3130 3131 3134 3136 3138 3141 3143 3146 3147 3148 3150 3151 3152 3153 3152 3151 3151 3150 3149 3149 3149 3148 3148 3149 3151 3153 3154 3156 3157 3157 3159 3160 3160 3162 3162 3162 3165 3166 3167 3168 3169 3169 3169 3169 3170 3170 3172
3132 3132 3131 3130 3129 3127 3126 3126 3126 3125 3125 3124 3124 3124 3123 3123 3123 3122 3122 3122 3122 3122 3122 3122 3121 3120 3120 3118 3118 3120 3121 3120 3121 3121 3121 3122 3123 3125 3127 3128 3128 3129 3131 3133 3134 3136 3139 3141 3143 3144 3146 3147 3149 3151 3151 3149 3148 3148 3148 3148 3147 3146 3145 3146 3147 3150 3152 3153 3154 3156 3156 3157 3158 3158 3160 3160 3162 3164 3165 3166 3167 3168 3169 3169 3169 3169 3170 3170
3130 3130 3129 3128 3127 3125 3124 3124 3123 3123 3123 3122 3122 3122 3121 3120 3120 3120 3119 3118 3118 3118 3119 3120 3118 3118 3118 3117 3116 3117 3119 3119 3119 3120 3120 3120 3122 3124 3127 3128 3128 3129 3131 3132 3133 3134 3137 3139 3141 3142 3143 3143 3145 3147 3146 3145 3146 3146 3145 3146 3145 3144 3142 3142 3145 3148 3151 3151 3153 3154 3155 3156 3156 3157 3159 3159 3161 3163 3164 3165 3166 3167 3168 3168 3168 3169 3169 3169
3128 3127 3126 3126 3125 3123 3122 3121 3121 3120 3120 3120 3119 3120 3119 3117 3117 3117 3115 3114 3115 3115 3116 3117 3114 3115 3116 3115 3116 3117 3118 3119 3118 3118 3120 3120 3121 3122 3125 3127 3127 3128 3130 3130 3131 3132 3135 3137 3138 3137 3137 3138 3140 3142 3142 3144 3145 3144 3143 3143 3143 3141 3140 3140 3143 3146 3149 3150 3151 3153 3154 3155 3156 3156 3157 3158 3160 3161 3163 3164 3165 3166 3167 3167 3167 3168 3169 3169
3125 3125 3124 3123 3123 3122 3120 3120 3119 3118 3118 3118 3117 3117 3116 3115 3116 3114 3110 3110 3112 3112 3113 3113 3109 3110 3112 3114 3117 3118 3117 3117 3116 3118 3119 3119 3120 3121 3123 3125 3126 3127 3128 3129 3129 3130 3133 3134 3132 3131 3132 3135 3138 3140 3142 3144 3144 3143 3141 3140 3139 3138 3138 3140 3141 3143 3146 3148 3149 3151 3153 3154 3155 3155 3156 3157 3159 3160 3161 3162 3164 3165 3165 3166 3166 3167 3169 3169
3123 3122 3121 3121 3120 3119 3119 3118 3118 3116 3116 3116 3115 3115 3114 3112 3114 3111 3107 3107 3108 3108 3108 3109 3107 3106 3108 3112 3114 3117 3118 3116 3115 3117 3118 3118 3120 3121 3121 3122 3124 3125 3125 3127 3129 3129 3130 3128 3126 3127 3130 3134 3137 3139 3141 3142 3143 3142 3140 3137 3136 3136 3135 3137 3138 3139 3142 3144 3146 3149 3151 3152 3153 3154 3155 3156 3157 3158 3159 3160 3162 3163 3164 3165 3166 3167 3168 3168
3120 3119 3118 3118 3118 3117 3117 3117 3116 3115 3114 3114 3113 3113 3112 3111 3111 3109 3106 3103 3103 3105 3104 3104 3105 3102 3104 3108 3109 3112 3115 3115 3113 3114 3116 3117 3118 3119 3120 3120 3121 3122 3123 3126 3127 3127 3125 3122 3123 3127 3130 3133 3135 3137 3139 3140 3140 3140 3139 3137 3135 3135 3135 3134 3135 3136 3138 3141 3143 3146 3148 3150 3152 3153 3154 3155 3155 3157 3158 3159 3160 3161 3162 3164 3165 3165 3166 3167
3116 3116 3116 3115 3115 3114 3114 3114 3114 3114 3113 3112 3112 3111 3110 3109 3109 3107 3105 3100 3098 3101 3100 3100 3101 3100 3101 3103 3105 3107 3108 3110 3112 3112 3113 3114 3115 3116 3118 3119 3119 3121 3122 3122 3122 3122 3119 3118 3122 3127 3129 3131 3132 3134 3136 3137 3138 3137 3137 3136 3134 3134 3134 3132 3133 3134 3136 3139 3141 3143 3146 3148 3150 3151 3152 3153 3154 3155 3156 3157 3159 3160 3161 3162 3163 3163 3164 3165
3113 3113 3112 3112 3112 3111 3110 3111 3112 3111 3111 3110 3109 3109 3108 3108 3107 3105 3103 3099 3094 3095 3098 3097 3096 3096 3097 3099 3102 3103 3103 3105 3109 3111 3111 3111 3113 3114 3115 3117 3118 3119 3119 3119 3120 3119 3117 3119 3122 3125 3126 3128 3129 3131 3132 3133 3134 3134 3134 3133 3133 3133 3133 3131 3131 3133 3134 3137 3140 3142 3144 3146 3147 3148 3149 3151 3152 3153 3154 3155 3157 3158 3159 3160 3162 3162 3162 3163
3110 3110 3109 3109 3109 3108 3107 3108 3109 3109 3108 3108 3107 3107 3107 3106 3106 3104 3102 3098 3092 3091 3094 3093 3092 3092 3094 3097 3098 3099 3101 3102 3103 3107 3109 3108 3110 3112 3113 3115 3116 3116 3116 3117 3118 3117 3116 3119 3121 3122 3123 3125 3126 3127 3128 3129 3130 3131 3131 3131 3131 3131 3131 3130 3131 3132 3133 3135 3138 3140 3142 3142 3144 3145 3146 3148 3149 3150 3151 3152 3154 3155 3156 3157 3159 3160 3161 3162
3107 3106 3106 3106 3106 3106 3105 3104 3106 3107 3105 3105 3105 3105 3106 3105 3105 3103 3101 3098 3090 3088 3089 3088 3088 3089 3090 3092 3093 3097 3101 3099 3098 3102 3106 3106 3107 3110 3111 3112 3112 3112 3114 3116 3116 3114 3113 3117 3118 3119 3120 3121 3123 3123 3124 3126 3127 3126 3127 3129 3130 3130 3130 3129 3129 3129 3129 3131 3136 3138 3139 3139 3140 3142 3143 3145 3146 3147 3148 3149 3151 3153 3154 3155 3156 3158 3159 3160
3104 3102 3102 3103 3102 3102 3103 3102 3103 3104 3102 3102 3103 3104 3104 3104 3105 3103 3102 3099 3089 3084 3084 3083 3085 3086 3087 3089 3090 3095 3096 3094 3095 3097 3100 3103 3104 3106 3108 3109 3110 3109 3112 3114 3112 3109 3110 3113 3114 3115 3117 3118 3118 3118 3120 3123 3123 3121 3124 3128 3128 3128 3128 3128 3128 3126 3125 3129 3132 3135 3136 3137 3137 3138 3140 3142 3143 3144 3146 3147 3148 3150 3151 3152 3154 3155 3157 3158
3100 3099 3098 3100 3099 3097 3100 3100 3099 3100 3100 3099 3101 3102 3101 3103 3104 3103 3105 3101 3088 3081 3080 3080 3082 3083 3086 3089 3088 3089 3091 3092 3093 3092 3094 3099 3101 3103 3104 3105 3107 3107 3109 3110 3106 3106 3109 3109 3110 3112 3113 3113 3113 3114 3118 3121 3120 3120 3124 3125 3125 3126 3127 3126 3126 3124 3124 3126 3126 3129 3133 3134 3133 3135 3138 3139 3140 3141 3142 3144 3145 3147 3149 3150 3151 3153 3154 3156
3097 3095 3094 3097 3096 3094 3096 3096 3095 3097 3097 3098 3100 3099 3100 3102 3102 3103 3107 3099 3084 3079 3080 3079 3081 3081 3084 3087 3085 3086 3089 3091 3092 3090 3092 3096 3097 3099 3100 3101 3105 3106 3106 3106 3104 3105 3106 3106 3108 3109 3108 3108 3110 3113 3116 3117 3117 3120 3123 3123 3123 3124 3124 3125 3123 3121 3122 3121 3119 3123 3128 3130 3129 3132 3135 3135 3135 3136 3138 3140 3142 3144 3146 3147 3149 3151 3152 3153
3093 3092 3091 3092 3093 3092 3092 3092 3092 3093 3095 3096 3097 3098 3098 3099 3100 3102 3102 3091 3080 3079 3078 3076 3079 3080 3081 3084 3083 3084 3086 3088 3090 3090 3091 3094 3094 3096 3098 3100 3103 3104 3104 3103 3102 3103 3103 3104 3105 3105 3104 3106 3109 3111 3113 3114 3116 3119 3121 3121 3121 3120 3121 3121 3120 3121 3120 3114 3115 3120 3123 3126 3126 3127 3130 3131 3131 3133 3135 3137 3139 3141 3143 3144 3146 3148 3150 3151
3089 3089 3087 3087 3089 3089 3090 3090 3088 3090 3092 3093 3095 3096 3096 3097 3099 3098 3090 3081 3079 3079 3075 3074 3078 3078 3078 3080 3080 3081 3083 3086 3088 3088 3088 3091 3092 3092 3095 3097 3098 3100 3100 3099 3099 3100 3100 3100 3100 3100 3102 3105 3107 3108 3110 3112 3114 3116 3117 3118 3118 3118 3118 3116 3115 3117 3114 3109 3113 3118 3119 3120 3119 3121 3126 3127 3128 3131 3132 3132 3134 3137 3138 3140 3143 3145 3146 3148
3085 3085 3084 3084 3083 3085 3088 3087 3085 3088 3089 3089 3093 3093 3093 3096 3093 3086 3080 3079 3078 3075 3072 3074 3075 3075 3075 3077 3077 3078 3080 3082 3084 3084 3085 3087 3087 3087 3088 3089 3091 3093 3094 3094 3095 3096 3096 3095 3096 3097 3099 3101 3103 3104 3107 3108 3109 3111 3112 3114 3114 3114 3114 3112 3108 3109 3107 3106 3112 3117 3115 3113 3111 3115 3121 3123 3125 3127 3128 3129 3131 3132 3134 3136 3138 3141 3143 3143
3081 3080 3081 3080 3079 3081 3084 3083 3083 3085 3085 3088 3090 3089 3093 3092 3079 3072 3076 3078 3074 3071 3071 3073 3072 3074 3074 3074 3075 3076 3077 3079 3080 3081 3082 3083 3084 3084 3084 3084 3086 3088 3088 3091 3092 3091 3091 3091 3093 3094 3094 3096 3098 3099 3101 3102 3104 3105 3107 3108 3108 3108 3110 3109 3106 3107 3106 3106 3110 3113 3111 3107 3106 3110 3115 3119 3121 3123 3124 3126 3128 3129 3131 3134 3135 3138 3139 3140
3077 3076 3077 3077 3076 3077 3079 3080 3080 3081 3083 3085 3085 3087 3089 3079 3066 3068 3073 3072 3071 3071 3071 3072 3072 3072 3072 3071 3072 3073 3074 3075 3077 3078 3079 3079 3079 3079 3080 3081 3083 3084 3086 3088 3087 3087 3086 3085 3086 3088 3090 3091 3093 3094 3096 3099 3102 3102 3104 3106 3104 3103 3105 3105 3104 3105 3105 3104 3106 3108 3105 3102 3103 3106 3110 3114 3117 3119 3121 3122 3125 3127 3128 3130 3132 3134 3136 3136
3073 3072 3072 3074 3074 3073 3074 3076 3077 3078 3080 3080 3082 3083 3076 3064 3062 3068 3069 3069 3071 3069 3069 3071 3071 3070 3068 3068 3069 3070 3070 3070 3072 3075 3074 3073 3073 3073 3074 3076 3077 3080 3082 3082 3082 3083 3082 3079 3081 3085 3086 3088 3089 3091 3096 3099 3099 3099 3103 3103 3100 3100 3103 3102 3101 3101 3102 3102 3102 3101 3099 3099 3102 3103 3106 3110 3112 3115 3117 3119 3122 3123 3125 3127 3128 3130 3131 3132
3069 3068 3069 3069 3070 3069 3070 3071 3074 3075 3075 3077 3077 3071 3061 3058 3063 3067 3066 3069 3070 3069 3068 3068 3068 3067 3065 3064 3065 3065 3066 3066 3068 3069 3068 3068 3068 3068 3069 3071 3072 3075 3075 3076 3077 3078 3077 3076 3079 3081 3082 3084 3086 3089 3093 3095 3094 3095 3097 3095 3095 3101 3102 3101 3100 3098 3098 3098 3096 3097 3096 3097 3100 3100 3102 3107 3109 3111 3113 3116 3119 3120 3122 3124 3125 3126 3127 3129
3065 3064 3066 3067 3065 3065 3066 3067 3070 3071 3070 3072 3068 3058 3054 3057 3062 3063 3064 3066 3067 3068 3068 3064 3062 3062 3060 3059 3059 3060 3062 3063 3063 3062 3062 3063 3062 3062 3065 3066 3068 3069 3070 3073 3074 3074 3073 3073 3074 3077 3077 3080 3085 3088 3089 3090 3090 3090 3089 3090 3095 3099 3099 3098 3098 3095 3094 3092 3092 3093 3092 3093 3096 3096 3098 3103 3105 3107 3109 3112 3115 3118 3120 3121 3123 3123 3122 3125
3060 3060 3063 3064 3060 3060 3062 3063 3065 3066 3067 3066 3058 3050 3052 3056 3057 3060 3062 3063 3064 3065 3063 3060 3058 3057 3056 3055 3054 3056 3057 3057 3057 3058 3057 3057 3055 3056 3060 3062 3063 3065 3068 3071 3071 3071 3072 3071 3070 3072 3073 3076 3081 3085 3084 3084 3085 3084 3084 3088 3092 3090 3090 3094 3094 3091 3090 3090 3090 3090 3088 3091 3093 3092 3095 3099 3100 3103 3106 3109 3112 3115 3116 3118 3120 3120 3119 3122
3056 3056 3060 3061 3059 3059 3059 3059 3061 3062 3061 3057 3051 3048 3050 3051 3052 3056 3058 3058 3059 3060 3058 3056 3055 3054 3052 3052 3051 3052 3052 3052 3052 3053 3052 3052 3051 3052 3055 3057 3059 3061 3064 3067 3067 3068 3070 3069 3067 3067 3070 3073 3076 3076 3075 3075 3079 3082 3083 3085 3085 3084 3085 3089 3089 3087 3087 3088 3089 3087 3085 3087 3088 3089 3092 3094 3096 3099 3102 3105 3108 3111 3113 3115 3117 3117 3116 3117
3053 3053 3056 3059 3060 3058 3057 3056 3057 3057 3055 3050 3047 3047 3048 3049 3050 3052 3054 3055 3054 3053 3053 3053 3053 3051 3049 3048 3049 3049 3048 3047 3048 3048 3047 3048 3048 3048 3050 3053 3055 3057 3060 3063 3065 3065 3067 3067 3065 3065 3066 3067 3066 3065 3067 3071 3075 3080 3080 3079 3080 3081 3083 3085 3085 3083 3084 3085 3085 3084 3081 3081 3084 3087 3089 3090 3092 3096 3098 3101 3104 3107 3110 3112 3114 3115 3114 3112
3051 3051 3053 3058 3059 3056 3055 3055 3054 3053 3050 3047 3045 3045 3046 3047 3048 3049 3051 3053 3051 3049 3048 3049 3049 3048 3047 3046 3046 3045 3045 3043 3042 3042 3042 3044 3044 3044 3046 3048 3051 3054 3056 3058 3060 3061 3062 3063 3064 3063 3061 3060 3059 3061 3066 3071 3073 3075 3075 3075 3076 3077 3079 3081 3079 3078 3080 3081 3081 3082 3078 3078 3082 3085 3086 3088 3090 3092 3095 3098 3100 3103 3107 3108 3109 3112 3113 3110
3047 3047 3050 3054 3054 3052 3053 3052 3050 3049 3047 3044 3043 3043 3044 3044 3044 3044 3046 3048 3048 3046 3046 3045 3043 3043 3043 3043 3042 3042 3042 3039 3038 3037 3036 3038 3040 3041 3043 3045 3047 3050 3051 3052 3054 3057 3060 3060 3060 3059 3057 3056 3059 3062 3064 3067 3070 3071 3071 3072 3074 3074 3073 3073 3073 3074 3075 3075 3078 3081 3076 3075 3080 3083 3084 3086 3087 3089 3092 3094 3097 3099 3102 3105 3106 3108 3110 3107
3042 3041 3045 3049 3049 3048 3048 3046 3045 3045 3042 3041 3041 3041 3041 3041 3040 3041 3042 3043 3043 3043 3042 3041 3039 3040 3040 3040 3040 3039 3039 3037 3034 3033 3032 3033 3036 3038 3040 3042 3044 3046 3047 3047 3050 3054 3057 3056 3055 3056 3057 3056 3057 3059 3061 3063 3066 3067 3065 3066 3068 3069 3068 3068 3069 3072 3073 3071 3075 3077 3072 3073 3078 3081 3082 3084 3086 3088 3089 3091 3095 3097 3099 3101 3103 3105 3105 3104
3037 3035 3038 3043 3044 3044 3042 3040 3040 3039 3038 3038 3038 3037 3037 3037 3036 3037 3038 3038 3039 3039 3038 3037 3037 3037 3037 3038 3037 3036 3036 3035 3032 3031 3031 3030 3031 3034 3037 3038 3040 3042 3042 3043 3046 3049 3050 3050 3051 3052 3053 3054 3053 3051 3053 3057 3059 3060 3061 3062 3063 3065 3068 3068 3068 3070 3068 3068 3071 3071 3066 3069 3076 3079 3081 3083 3084 3086 3087 3089 3092 3094 3096 3097 3099 3102 3103 3101
3032 3031 3032 3036 3039 3039 3036 3035 3036 3036 3035 3035 3033 3032 3032 3031 3031 3032 3033 3034 3034 3035 3034 3033 3034 3034 3035 3036 3035 3033 3033 3033 3031 3030 3029 3028 3027 3029 3032 3034 3035 3038 3040 3041 3043 3044 3045 3045 3046 3045 3044 3047 3047 3043 3045 3051 3054 3056 3057 3059 3060 3062 3064 3066 3067 3066 3063 3064 3068 3066 3063 3067 3073 3076 3078 3081 3083 3083 3085 3087 3090 3092 3093 3095 3097 3098 3100 3100
3031 3029 3030 3031 3033 3034 3033 3033 3033 3032 3032 3030 3027 3025 3024 3023 3022 3023 3025 3027 3029 3031 3030 3030 3032 3032 3031 3031 3030 3030 3029 3029 3030 3029 3027 3026 3025 3025 3028 3029 3031 3034 3036 3037 3039 3041 3041 3041 3042 3041 3039 3041 3043 3044 3046 3049 3051 3052 3053 3055 3057 3058 3060 3062 3063 3061 3061 3064 3064 3063 3065 3068 3069 3071 3074 3078 3081 3082 3083 3085 3087 3089 3091 3094 3095 3094 3096 3099
3030 3028 3028 3028 3028 3029 3028 3029 3030 3028 3026 3024 3021 3020 3020 3019 3019 3018 3018 3020 3022 3025 3024 3024 3026 3027 3028 3029 3028 3027 3027 3027 3027 3026 3025 3025 3024 3024 3025 3026 3028 3030 3032 3034 3035 3037 3038 3036 3037 3038 3039 3040 3042 3045 3046 3047 3047 3048 3049 3051 3054 3055 3057 3057 3057 3057 3060 3062 3059 3061 3067 3067 3066 3069 3071 3074 3078 3079 3081 3083 3085 3086 3088 3091 3093 3091 3093 3097
3027 3025 3026 3027 3025 3024 3023 3023 3024 3023 3022 3020 3019 3018 3017 3017 3017 3017 3017 3015 3014 3015 3013 3012 3013 3014 3018 3023 3024 3024 3024 3024 3024 3023 3023 3024 3023 3022 3022 3023 3025 3027 3029 3032 3034 3035 3035 3033 3032 3035 3037 3039 3041 3043 3043 3043 3044 3045 3046 3047 3049 3052 3053 3053 3052 3054 3058 3058 3056 3060 3065 3065 3066 3068 3069 3072 3076 3077 3079 3081 3083 3085 3086 3089 3090 3091 3092 3095
3025 3024 3023 3023 3022 3021 3020 3019 3019 3018 3018 3018 3017 3016 3015 3015 3015 3016 3016 3014 3011 3010 3010 3008 3006 3006 3007 3010 3014 3017 3019 3019 3020 3020 3021 3023 3023 3021 3020 3019 3021 3024 3026 3029 3031 3033 3032 3030 3031 3031 3031 3033 3037 3039 3041 3041 3041 3042 3042 3044 3046 3047 3049 3050 3050 3052 3054 3055 3056 3060 3062 3062 3065 3068 3068 3070 3072 3075 3078 3079 3080 3082 3085 3086 3088 3090 3093 3094
3022 3021 3020 3019 3018 3017 3017 3016 3017 3016 3016 3016 3014 3014 3014 3013 3012 3013 3014 3013 3010 3009 3010 3009 3006 3005 3006 3007 3010 3013 3013 3012 3012 3012 3013 3015 3017 3018 3019 3017 3017 3020 3023 3025 3028 3030 3030 3028 3030 3031 3029 3028 3032 3035 3038 3039 3039 3039 3039 3041 3043 3043 3044 3045 3047 3049 3051 3052 3054 3057 3058 3058 3062 3067 3068 3068 3069 3071 3074 3076 3078 3080 3082 3084 3086 3087 3090 3091
3020 3019 3018 3016 3014 3014 3014 3013 3014 3014 3013 3013 3012 3012 3012 3011 3011 3011 3010 3011 3011 3008 3009 3010 3007 3006 3007 3007 3008 3009 3007 3006 3006 3005 3006 3006 3006 3009 3011 3012 3014 3016 3019 3023 3026 3027 3028 3027 3029 3031 3029 3027 3029 3031 3033 3036 3039 3038 3036 3036 3037 3038 3038 3039 3041 3044 3048 3049 3051 3053 3053 3055 3060 3064 3066 3067 3068 3069 3070 3072 3075 3078 3079 3081 3083 3085 3086 3088
3017 3016 3016 3014 3010 3011 3012 3011 3011 3011 3010 3010 3010 3010 3010 3010 3010 3010 3007 3006 3008 3008 3008 3009 3007 3005 3005 3003 3004 3005 3004 3002 3000 2999 3000 3000 3000 3001 3003 3006 3010 3012 3015 3020 3022 3023 3025 3026 3027 3029 3027 3026 3028 3029 3031 3035 3036 3032 3030 3032 3034 3036 3036 3036 3037 3040 3044 3047 3049 3049 3050 3053 3058 3061 3062 3064 3066 3066 3068 3070 3071 3073 3077 3078 3080 3081 3083 3085